| time (UTC) | temp C | wind direction | speed KPH | gust KPH | rain 1hr cm | rain 24hr cm | rain mn cm | humidity % | barometer mb |
| 20260506073026 | 15 | 249 | 4.8 | 16.1 | 0.00 | 0.30 | 0.30 | 95 | 1025.2 |
| 20260506071515 | 15 | 1 | 3.2 | 11.3 | 0.00 | 0.30 | 0.30 | 96 | 1025.3 |
| 20260506061512 | 15 | 7 | 1.6 | 17.7 | 0.00 | 0.30 | 0.30 | 96 | 1025.1 |
| 20260506044516 | 15 | 307 | 3.2 | 29.0 | 0.00 | 0.30 | 0.30 | 96 | 1025.0 |
| 20260506043022 | 15 | 248 | 4.8 | 20.9 | 0.00 | 0.30 | 0.30 | 96 | 1025.3 |
| 20260506041528 | 15 | 237 | 3.2 | 16.1 | 0.00 | 0.30 | 0.30 | 96 | 1025.0 |
| 20260506040014 | 15 | 279 | 4.8 | 20.9 | 0.00 | 0.30 | 0.30 | 96 | 1025.1 |
| 20260506034520 | 15 | 252 | 4.8 | 19.3 | 0.00 | 0.30 | 0.30 | 96 | 1025.1 |
| 20260506033020 | 15 | 94 | 4.8 | 25.7 | 0.00 | 0.30 | 0.30 | 96 | 1025.0 |
| 20260506031522 | 15 | 237 | 4.8 | 12.9 | 0.00 | 0.30 | 0.30 | 96 | 1024.9 |
| 20260506030037 | 15 | 325 | 3.2 | 19.3 | 0.00 | 0.30 | 0.30 | 96 | 1024.4 |
| 20260506024530 | 15 | 335 | 3.2 | 17.7 | 0.00 | 0.30 | 0.30 | 96 | 1024.4 |
| 20260506023020 | 15 | 70 | 3.2 | 17.7 | 0.00 | 0.30 | 0.30 | 96 | 1024.4 |
| 20260506021521 | 15 | 313 | 3.2 | 12.9 | 0.00 | 0.30 | 0.30 | 96 | 1024.4 |
| 20260506020024 | 15 | 188 | 4.8 | 12.9 | 0.00 | 0.30 | 0.30 | 96 | 1024.5 |
| 20260506014527 | 15 | 238 | 8.0 | 19.3 | 0.00 | 0.30 | 0.30 | 96 | 1024.4 |
| 20260506013023 | 14 | 191 | 6.4 | 17.7 | 0.10 | 0.30 | 0.30 | 96 | 1024.6 |
| 20260506011520 | 14 | 228 | 3.2 | 17.7 | 0.20 | 0.30 | 0.30 | 96 | 1024.8 |
| 20260506010029 | 14 | 334 | 8.0 | 17.7 | 0.25 | 0.30 | 0.30 | 96 | 1025.0 |
| 20260506004528 | 14 | 231 | 4.8 | 11.3 | 0.23 | 0.28 | 0.28 | 96 | 1025.3 |
| 20260506003033 | 14 | 43 | 8.0 | 20.9 | 0.13 | 0.18 | 0.18 | 96 | 1025.2 |
| 20260506001519 | 14 | 39 | 4.8 | 19.3 | 0.05 | 0.08 | 0.08 | 96 | 1025.6 |
| 20260506000022 | 14 | 51 | 3.2 | 20.9 | 0.05 | 0.05 | 0.05 | 96 | 1025.7 |
| 20260505234533 | 14 | 72 | 3.2 | 14.5 | 0.05 | 0.05 | 0.05 | 96 | 1025.9 |
| 20260505233024 | 14 | 96 | 3.2 | 11.3 | 0.05 | 0.05 | 0.05 | 95 | 1025.9 |
| 20260505231527 | 14 | 247 | 6.4 | 22.5 | 0.03 | 0.03 | 0.03 | 95 | 1025.7 |
| 20260505230035 | 15 | 310 | 3.2 | 20.9 | 0.00 | 0.00 | 0.00 | 95 | 1025.9 |
| 20260505224522 | 14 | 266 | 3.2 | 16.1 | 0.00 | 0.00 | 0.00 | 95 | 1025.9 |
| 20260505223029 | 14 | 240 | 8.0 | 19.3 | 0.00 | 0.00 | 0.00 | 95 | 1025.9 |
| 20260505221533 | 14 | 129 | 3.2 | 17.7 | 0.00 | 0.00 | 0.00 | 95 | 1025.9 |
| 20260505220027 | 14 | 245 | 6.4 | 24.1 | 0.00 | 0.00 | 0.00 | 95 | 1025.9 |
| 20260505214524 | 14 | 295 | 3.2 | 14.5 | 0.00 | 0.00 | 0.00 | 95 | 1026.1 |
| 20260505213016 | 14 | 302 | 3.2 | 11.3 | 0.00 | 0.00 | 0.00 | 95 | 1026.1 |
| 20260505211516 | 14 | 187 | 4.8 | 19.3 | 0.00 | 0.00 | 0.00 | 94 | 1026.1 |
| 20260505210013 | 13 | 199 | 4.8 | 16.1 | 0.00 | 0.00 | 0.00 | 94 | 1026.3 |
| 20260505204518 | 13 | 221 | 3.2 | 9.7 | 0.00 | 0.00 | 0.00 | 94 | 1026.5 |
| 20260505203020 | 13 | 88 | 1.6 | 11.3 | 0.00 | 0.00 | 0.00 | 93 | 1026.4 |
| 20260505201518 | 13 | 250 | 3.2 | 11.3 | 0.00 | 0.00 | 0.00 | 93 | 1026.5 |
| 20260505200030 | 13 | 271 | 1.6 | 16.1 | 0.00 | 0.00 | 0.00 | 93 | 1026.4 |
| 20260505194515 | 13 | 216 | 3.2 | 16.1 | 0.00 | 0.00 | 0.00 | 93 | 1026.4 |
| 20260505193019 | 13 | 233 | 3.2 | 16.1 | 0.00 | 0.00 | 0.00 | 94 | 1026.4 |
| 20260505191520 | 13 | 165 | 3.2 | 14.5 | 0.00 | 0.00 | 0.00 | 93 | 1026.1 |
| 20260505190018 | 13 | 301 | 3.2 | 22.5 | 0.00 | 0.00 | 0.00 | 93 | 1026.3 |
| 20260505184524 | 13 | 200 | 6.4 | 17.7 | 0.00 | 0.00 | 0.00 | 93 | 1026.0 |
| 20260505183020 | 13 | 205 | 3.2 | 11.3 | 0.00 | 0.00 | 0.00 | 94 | 1026.2 |
| 20260505181505 | 13 | 255 | 3.2 | 14.5 | 0.00 | 0.00 | 0.00 | 94 | 1026.4 |
| 20260505180008 | 13 | 230 | 3.2 | 12.9 | 0.00 | 0.00 | 0.00 | 94 | 1026.5 |
| 20260505174515 | 13 | 226 | 3.2 | 17.7 | 0.00 | 0.00 | 0.00 | 93 | 1026.6 |
| 20260505173035 | 13 | 280 | 1.6 | 20.9 | 0.00 | 0.00 | 0.00 | 93 | 1026.6 |
| 20260505171522 | 13 | 49 | 3.2 | 19.3 | 0.00 | 0.00 | 0.00 | 93 | 1026.6 |
| 20260505170006 | 13 | 230 | 1.6 | 12.9 | 0.00 | 0.00 | 0.00 | 92 | 1026.7 |
| 20260505164527 | 13 | 15 | 1.6 | 11.3 | 0.00 | 0.00 | 0.00 | 92 | 1026.7 |
| 20260505163015 | 13 | 239 | 1.6 | 8.0 | 0.00 | 0.00 | 0.00 | 92 | 1026.9 |
| 20260505161518 | 13 | 93 | 1.6 | 12.9 | 0.00 | 0.00 | 0.00 | 92 | 1027.0 |
| 20260505153013 | 13 | 70 | 3.2 | 11.3 | 0.00 | 0.00 | 0.00 | 90 | 1027.4 |
| 20260505151519 | 13 | 282 | 3.2 | 9.7 | 0.00 | 0.00 | 0.00 | 89 | 1027.6 |
| 20260505124526 | 12 | 262 | 3.2 | 11.3 | 0.00 | 0.00 | 0.00 | 84 | 1028.9 |
| 20260505123025 | 12 | 113 | 1.6 | 14.5 | 0.00 | 0.00 | 0.00 | 83 | 1028.9 |
| 20260505121530 | 12 | 304 | 4.8 | 14.5 | 0.00 | 0.00 | 0.00 | 83 | 1029.0 |
| 20260505120011 | 12 | 59 | 1.6 | 14.5 | 0.00 | 0.00 | 0.00 | 82 | 1029.1 |
| 20260505114531 | 12 | 317 | 1.6 | 16.1 | 0.00 | 0.00 | 0.00 | 82 | 1029.0 |
| 20260505113021 | 12 | 191 | 1.6 | 12.9 | 0.00 | 0.00 | 0.00 | 82 | 1029.0 |
| 20260505111532 | 12 | 239 | 3.2 | 9.7 | 0.00 | 0.00 | 0.00 | 82 | 1029.0 |
| 20260505101524 | 12 | 210 | 3.2 | 9.7 | 0.00 | 0.00 | 0.00 | 82 | 1029.4 |
| 20260505100034 | 12 | 25 | 1.6 | 9.7 | 0.00 | 0.00 | 0.00 | 83 | 1029.4 |
| 20260505094524 | 12 | 219 | 1.6 | 14.5 | 0.00 | 0.00 | 0.00 | 83 | 1029.5 |
| 20260505093016 | 12 | 273 | 4.8 | 24.1 | 0.00 | 0.00 | 0.00 | 82 | 1029.4 |
| 20260505091523 | 12 | 244 | 3.2 | 8.0 | 0.00 | 0.00 | 0.00 | 83 | 1029.5 |
| 20260505090044 | 12 | 291 | 1.6 | 11.3 | 0.00 | 0.00 | 0.00 | 84 | 1029.5 |
| 20260505084535 | 12 | 231 | 1.6 | 8.0 | 0.00 | 0.00 | 0.00 | 85 | 1029.5 |
| 20260505083038 | 12 | 79 | 1.6 | 11.3 | 0.00 | 0.00 | 0.00 | 86 | 1029.5 |
| 20260505081528 | 11 | 223 | 1.6 | 11.3 | 0.00 | 0.00 | 0.00 | 86 | 1029.7 |
| 20260505080035 | 11 | 217 | 0.0 | 8.0 | 0.00 | 0.00 | 0.00 | 86 | 1029.7 |